Weather History for KLRD - August, 2013

Change the Weather History Date:

Monday, August 26, 2013

  Actual Average Record
Temperature  
Mean Temperature 86 °F 88 °F  
Max Temperature 94 °F 99 °F 108 °F (1935)
Min Temperature 77 °F 77 °F 62 °F (1973)
Degree Days  
Heating Degree Days 0 0  
Month to date heating degree days 0 0  
Since 1 June heating degree days 0 0  
Since 1 July heating degree days 0 0  
Cooling Degree Days 21 23  
Month to date cooling degree days 654 618  
Year to date cooling degree days 3288 3134  
Since 1 June cooling degree days 2087 1991  
Growing Degree Days 35 (Base 50)    
Moisture  
Dew Point 74 °F    
Average Humidity 77    
Maximum Humidity 94    
Minimum Humidity 44    
Precipitation  
Precipitation 0.00 in 0.09 in 1.00 in (1918)
Month to date precipitation 0.23 1.40  
Year to date precipitation 11.76 12.51  
Sea Level Pressure  
Sea Level Pressure 30.01 in    
Wind  
Wind Speed 8 mph (ENE)    
Max Wind Speed 26 mph    
Max Gust Speed 30 mph    
Visibility 10 miles    
Events Rain    
T = Trace of Precipitation, MM = Missing Value Source: NWS Daily Summary

Daily Weather History Graph

Daily Weather History Graph

Search for Another Location

Airport or City:

Trip Planner

Search our weather history database for the weather conditions in past years. The results will help you decide how hot, cold, wet, or windy it might be!

Date:

Astronomy

Aug. 26, 2013 Rise Set
Actual Time 7:14 AM CDT 8:04 PM CDT
Civil Twilight 6:50 AM CDT 8:28 PM CDT
Nautical Twilight 6:21 AM CDT 8:56 PM CDT
Astronomical Twilight 5:52 AM CDT 9:25 PM CDT
Moon 11:53 PM CDT (8/26) 12:41 PM CDT (8/26)
Length of Visible Light 13h 38m
Length of Day
12h 50m
Waning Gibbous, 66% of the Moon is Illuminated
Aug 26
Waning Gibbous
Aug 28
Last Quarter
Sep 5
New
Sep 12
First Quarter
Sep 19
Full

Hourly Weather History & Observations

Time (CDT) Temp. Heat Index Dew Point Humidity Pressure Visibility Wind Dir Wind Speed Gust Speed Precip Events Conditions
12:56 AM 79.9 °F - 77.0 °F 91% 30.01 in 10.0 mi Calm Calm - N/A   Clear
1:56 AM 79.9 °F - 77.0 °F 91% 30.01 in 10.0 mi ENE 4.6 mph - N/A   Unknown
2:31 AM 80.6 °F 86.2 °F 75.2 °F 84% 30.04 in 10.0 mi ENE 6.9 mph - N/A   Mostly Cloudy
2:38 AM 78.8 °F - 75.2 °F 89% 30.03 in 10.0 mi East 5.8 mph - N/A   Mostly Cloudy
2:56 AM 79.0 °F - 75.9 °F 90% 30.00 in 10.0 mi East 6.9 mph - N/A   Partly Cloudy
3:56 AM 77.9 °F - 75.9 °F 94% 30.00 in 10.0 mi ENE 5.8 mph - N/A   Clear
4:56 AM 77.9 °F - 74.8 °F 90% 30.00 in 10.0 mi East 5.8 mph - N/A   Clear
5:56 AM 77.0 °F - 74.8 °F 93% 30.01 in 10.0 mi East 5.8 mph - N/A   Clear
6:56 AM 77.0 °F - 74.8 °F 93% 30.02 in 10.0 mi Calm Calm - N/A   Clear
7:56 AM 77.0 °F - 75.9 °F 96% 30.04 in 10.0 mi NE 4.6 mph - N/A   Partly Cloudy
8:56 AM 79.0 °F - 74.8 °F 87% 30.05 in 10.0 mi East 5.8 mph - N/A   Mostly Cloudy
9:56 AM 82.9 °F 90.8 °F 75.9 °F 79% 30.06 in 10.0 mi Variable 3.5 mph - N/A   Mostly Cloudy
10:15 AM 82.4 °F 89.5 °F 75.2 °F 79% 30.09 in 10.0 mi Calm Calm - N/A   Mostly Cloudy
10:27 AM 84.2 °F 92.3 °F 75.2 °F 74% 30.09 in 10.0 mi East 4.6 mph - N/A   Scattered Clouds
10:56 AM 88.0 °F 96.5 °F 73.9 °F 63% 30.05 in 10.0 mi ENE 8.1 mph - N/A   Clear
11:56 AM 88.0 °F 94.7 °F 72.0 °F 59% 30.04 in 10.0 mi NNE 6.9 mph - N/A   Mostly Cloudy
12:56 PM 90.9 °F 95.3 °F 68.9 °F 48% 30.01 in 10.0 mi Variable 5.8 mph - N/A   Mostly Cloudy
1:56 PM 93.9 °F 98.6 °F 68.0 °F 43% 29.99 in 10.0 mi SSE 5.8 mph - N/A   Mostly Cloudy
2:56 PM 91.9 °F 97.4 °F 70.0 °F 48% 29.97 in - ESE 9.2 mph - N/A   Mostly Cloudy
3:19 PM 80.6 °F 86.2 °F 75.2 °F 84% 30.02 in 10.0 mi NNE 12.7 mph 25.3 mph 0.00 in Rain Light Rain
3:56 PM 81.0 °F 86.7 °F 74.8 °F 82% 29.97 in 10.0 mi NE 9.2 mph - 0.00 in Rain Light Rain
4:56 PM 88.9 °F 96.6 °F 72.9 °F 59% 29.96 in 10.0 mi ENE 12.7 mph - 0.00 in   Mostly Cloudy
5:56 PM 83.8 °F 90.8 °F 73.9 °F 72% 29.96 in 10.0 mi ENE 11.5 mph - 0.00 in   Partly Cloudy
6:56 PM 86.0 °F 93.0 °F 72.9 °F 65% 29.95 in 10.0 mi ENE 12.7 mph - 0.00 in   Clear
7:56 PM 83.8 °F 89.2 °F 72.0 °F 67% 29.96 in 10.0 mi ENE 10.4 mph - N/A   Clear
8:56 PM 82.9 °F 88.5 °F 72.9 °F 71% 29.98 in 10.0 mi East 10.4 mph - N/A   Scattered Clouds
9:56 PM 81.9 °F 87.0 °F 72.9 °F 74% 30.00 in 10.0 mi East 10.4 mph - N/A   Clear
10:56 PM 81.0 °F 86.2 °F 73.9 °F 79% 30.01 in 10.0 mi East 10.4 mph - N/A   Clear
11:56 PM 81.0 °F 85.6 °F 72.9 °F 76% 30.02 in 10.0 mi SE 16.1 mph - N/A   Clear